Regional Weather Roundup
Issued by NWS State College, PA

Home | Current Version | Previous Version | Text Only | Print | Product List | Glossary On
Versions: 1 2 3 4 5 6 7 8 9 10 11 12 13 14 15 16 17 18 19 20 21 22 23 24 25 26 27 28 29 30 31 32 33 34 35 36 37 38 39 40 41 42 43 44 45 46 47 48 49 50
000
ASUS41 KCTP 011110
RWRCTP

REGIONAL WEATHER ROUNDUP
NATIONAL WEATHER SERVICE STATE COLLEGE PA
700 AM EDT WED OCT 01 2014

Note: "fair" indicates few or no clouds below 12,000 feet with no
significant weather and/or obstructions to visibility.

* = STATION THAT DOES NOT REPORT PRECIPITATION /E.G. RAIN...SNOW...ETC/
    THUNDER OR FOG.

PAZ002>004-007>009-013>016-020>023-029>032-011200-
WESTERN PENNSYLVANIA

CITY           SKY/WX    TMP DP  RH WIND       PRES   REMARKS
ERIE           CLEAR     55  53  93 CALM      30.00R
MEADVILLE      FOG       55  54  96 E6        30.00S VSB 1/4
FRANKLIN*      CLOUDY    54  50  87 N3        30.02R VSB<1/4
NEW CASTLE       N/A     55  55 100 CALM      30.01S FOG
BEAVER COUNTY  CLOUDY    55  54  94 CALM      30.00  FOG
BUTLER*        CLOUDY    54  50  87 NE6       30.01R VSB 1/4
PITTSBURGH INT FOG       55  55 100 N3        29.98S VSB 1/4
PITTSBURGH     FOG       55  53  93 CALM      29.98R VSB<1/4
INDIANA*       MOCLDY    50  50 100 CALM      30.03R FOG
LATROBE        MOCLDY    52  52 100 CALM      30.00R FOG
WASHINGTON CO* CLOUDY    55  54  94 N3        30.00R
$$

PAZ004>006-010>012-017>019-024>028-033>037-041-042-045-046-049>053-011200-
CENTRAL PENNSYLVANIA

CITY           SKY/WX    TMP DP  RH WIND       PRES   REMARKS
BRADFORD       FOG       51  50  96 CALM      30.02S VSB 1/4
DUBOIS         FOG       52  52 100 NE3       30.00R VSB<1/4
CLEARFIELD     FOG       53  53 100 CALM      30.01R VSB 1/4
JOHNSTOWN      PTCLDY    50  48  93 S5        30.01R FOG
ALTOONA        CLOUDY    57  57 100 CALM      30.01S FOG
STATE COLLEGE  FOG       52  52 100 CALM      30.01R VSB 1/8
WILLIAMSPORT   CLOUDY    61  58  90 CALM      30.00R
SELINSGROVE    CLOUDY    59  58  96 CALM      30.01R FOG
FT INDIANTOWN  FOG       55  55 100 CALM      30.01R VSB<1/4
CAPITAL CITY   CLOUDY    61  58  90 CALM      30.01R FOG
HARRISBURG     CLOUDY    60  58  92 CALM      30.00R FOG
YORK           CLOUDY    59  58  96 CALM      30.01R FOG
$$

PAZ038>040-043-044-047-048-054-055-060>062-067>071-011200-
EASTERN PENNSYLVANIA

CITY           SKY/WX    TMP DP  RH WIND       PRES   REMARKS
SCRANTON       PTCLDY    59  55  87 E6        30.01S
MOUNT POCONO   CLOUDY    56  53  90 E5        30.03R
ALLENTOWN      CLOUDY    59  56  89 NE6       30.01R
QUAKERTOWN*    CLOUDY    59  57  94 NE3       30.02R
READING        PTCLDY    60  58  92 NE3       30.00R
LANCASTER      FOG       57  56  96 CALM      30.01R VSB 3/4
COATESVILLE    CLOUDY    59  59 100 NE6       30.02R FOG
POTTSTOWN      PTCLDY    58  56  93 CALM      30.03R
BLUE BELL      CLOUDY    59  59 100 CALM      29.99R
DOYLESTOWN     MOCLDY    58  57  97 NE5       30.00R
WILLOW GROVE   NOT AVBL
NORTH PHILA    CLOUDY    63  56  78 NE8       30.01R
PHILADELPHIA   CLOUDY    64  58  80 NE9       29.99R
$$



USA.gov is the U.S. government's official web portal to all federal, state and local government web resources and services.